Weather History for Belize, Belize

Change the Weather History Date:

Friday, August 2, 2013

  Actual Average Record
Temperature  
Mean Temperature 82 °F -  
Max Temperature 89 °F 89 °F 91 °F (2007)
Min Temperature 76 °F 76 °F 73 °F (2000)
Cooling Degree Days 18    
Growing Degree Days 32 (Base 50)    
Moisture  
Dew Point 76 °F    
Average Humidity 77    
Maximum Humidity 94    
Minimum Humidity 57    
Precipitation  
Precipitation 0.08 in 0.25 in - ()
Sea Level Pressure  
Sea Level Pressure 29.94 in    
Wind  
Wind Speed 2 mph ()    
Max Wind Speed 9 mph    
Max Gust Speed -    
Visibility 8.6 miles    
Events Rain , Thunderstorm    
Averages and records for this station are not official NWS values.
T = Trace of Precipitation, MM = Missing Value Source: Averaged Metar Reports

Daily Weather History Graph

Daily Weather History Graph

Search for Another Location

Airport:

Trip Planner

Search our weather history database for the weather conditions in past years. The results will help you decide how hot, cold, wet, or windy it might be!

Date:

Astronomy

Aug. 02, 2013 Rise Set
Actual Time 5:32 AM CST 6:26 PM CST
Civil Twilight 5:09 AM CST 6:49 PM CST
Nautical Twilight 4:42 AM CST 7:16 PM CST
Astronomical Twilight 4:14 AM CST 7:43 PM CST
Moon 1:59 AM CST (8/2) 3:17 PM CST (8/2)
Length of Visible Light 13h 39m
Length of Day
12h 53m
Waning Crescent, 15% of the Moon is Illuminated
Aug 2
Waning Crescent
Aug 6
New
Aug 14
First Quarter
Aug 20
Full
Aug 28
Last Quarter

Hourly Weather History & Observations

Time (CST) Temp. Heat Index Dew Point Humidity Pressure Visibility Wind Dir Wind Speed Gust Speed Precip Events Conditions
12:00 AM 80 °F - 74 °F 77% 29.96 in 12 mi Calm Calm - -   Mostly Cloudy
3:00 AM 77 °F - 74 °F 90% 29.91 in 12 mi Calm Calm - -   Scattered Clouds
5:00 AM 77.0 °F - 75.2 °F 94% 29.89 in 6.2 mi Calm Calm - N/A   Mostly Cloudy
6:00 AM 78 °F - 76 °F 91% 29.93 in 12 mi Calm Calm - - Rain Light Rain Showers
6:00 AM 78.8 °F - 75.2 °F 89% 29.92 in 6.2 mi Calm Calm - N/A   Mostly Cloudy
6:20 AM 78.8 °F - 75.2 °F 89% 29.92 in 6.2 mi Calm Calm - N/A Thunderstorm Thunderstorm
7:00 AM 78.8 °F - 77.0 °F 94% 29.95 in 6.2 mi Calm Calm - N/A   Mostly Cloudy
8:00 AM 78.8 °F - 77.0 °F 94% 29.95 in 6.2 mi WNW 5.8 mph - N/A   Scattered Clouds
9:00 AM 82 °F - 77 °F 81% 29.97 in 14 mi 1.2 mph - -  
9:00 AM 82.4 °F 90.9 °F 77.0 °F 84% 29.97 in 6.2 mi Variable 2.3 mph - N/A   Scattered Clouds
10:00 AM 86.0 °F 96.9 °F 77.0 °F 74% 29.97 in 6.2 mi Variable 2.3 mph - N/A   Mostly Cloudy
11:00 AM 87.8 °F 97.6 °F 75.2 °F 66% 29.96 in 6.2 mi SE 5.8 mph - N/A   Scattered Clouds
12:00 PM 88 °F - 75 °F 57% 29.97 in 14 mi East 6.9 mph - -   Partly Cloudy
12:00 PM 87.8 °F 97.6 °F 75.2 °F 66% 29.96 in 6.2 mi East 6.9 mph - N/A   Scattered Clouds
1:00 PM 89.6 °F 99.8 °F 75.2 °F 62% 29.95 in 6.2 mi East 8.1 mph - N/A   Scattered Clouds
2:00 PM 87.8 °F 97.6 °F 75.2 °F 66% 29.93 in 6.2 mi ESE 5.8 mph - N/A   Scattered Clouds
3:00 PM 87 °F - 75 °F 60% 29.92 in 14 mi SE 6.9 mph - -   Partly Cloudy
3:00 PM 87.8 °F 97.6 °F 75.2 °F 66% 29.92 in 6.2 mi SE 6.9 mph - N/A   Scattered Clouds
4:00 PM 87.8 °F 97.6 °F 75.2 °F 66% 29.91 in 6.2 mi ESE 6.9 mph - N/A   Scattered Clouds
5:00 PM 82.4 °F 92.4 °F 78.8 °F 89% 29.91 in 6.2 mi East 5.8 mph - N/A   Scattered Clouds
6:00 PM 84 °F - 77 °F 73% 29.94 in 12 mi East 6.9 mph - -  
9:00 PM 84 °F - 76 °F 70% 30.01 in 12 mi East 9.2 mph - -   Scattered Clouds